Regional Weather Roundup
Issued by NWS

Home | Current Version | Previous Version | Text Only | Print | Product List | Glossary Off
Versions: 1 2 3 4 5 6 7 8 9 10 11 12 13 14 15 16 17 18 19 20 21 22 23 24 25 26 27 28 29 30 31 32 33 34 35 36 37 38 39 40 41 42 43 44 45 46 47 48 49 50

000
ASUS43 KIND 192300
RWRIN

WEATHER ROUNDUP FOR INDIANA
NATIONAL WEATHER SERVICE INDIANAPOLIS IN
700 PM EDT THU OCT 19 2017

NOTE: "FAIR" INDICATES FEW OR NO CLOUDS BELOW 12,000 FEET WITH NO
SIGNIFICANT WEATHER AND/OR OBSTRUCTIONS TO VISIBILITY.

* - STATION DOES NOT REPORT WEATHER SUCH AS PRECIPITATION OR FOG.

+ - STATION NOT QUALITY CONTROLLED BY THE NATIONAL WEATHER SERVICE.
    USE DATA WITH CAUTION...ESPECIALLY DEWPOINT AND RELATIVE
    HUMIDITY OBSERVATIONS.

INZ001>003-010>013-019-020-200000-
NORTHWEST INDIANA

CITY           SKY/WX    TMP DP  RH WIND       PRES   REMARKS
GARY /AIRPORT/ MOCLDY    61  32  33 E3        30.18F
KNOX *+        CLOUDY    59  34  38 CALM      30.18S
MONTICELLO +   CLOUDY    67  51  56 CALM      30.17R

$$

LMZ046-743>745-200000-
SOUTHERN LAKE MICHIGAN

STATION/POSITION TIME  TEMP    WIND        PRES    WAVE
                       AIR SEA DIR/SP/G            HT
                 (UTC) (F)     (DEG/KT/KT) (MB)    (FT)
BURNS HARBOR     2240   60      80/  6/  7 1022.4F
MICHIGAN CITY    2230   59      50/  2/  2   N/A
5NW MICH CITY    2250   58 59  160/  2/  4   N/A     1

$$

INZ004-005-014>016-021>024-200000-
NORTH CENTRAL INDIANA

CITY           SKY/WX    TMP DP  RH WIND       PRES   REMARKS
ELKHART        CLEAR     59  32  36 CALM      30.18S
GOSHEN         CLEAR     61  30  31 W5        30.18S
PERU/GRISSOM   CLEAR     67  51  56 CALM      30.18R
SOUTH BEND     CLEAR     56  36  47 W5        30.19S

$$

INZ006>009-017-018-025>027-200000-
NORTHEAST INDIANA

CITY           SKY/WX    TMP DP  RH WIND       PRES   REMARKS
FORT WAYNE     CLOUDY    66  47  50 NW6       30.18R
KENDALLVILLE + CLEAR     62  34  34 CALM      30.19R

$$

INZ028-029-035-036-043>045-051>053-200000-
WEST CENTRAL INDIANA

CITY           SKY/WX    TMP DP  RH WIND       PRES   REMARKS
LAFAYETTE      CLEAR     68  53  58 CALM      30.17R
TERRE HAUTE    CLEAR     70  50  49 S5        30.18S

$$

INZ030>032-037>040-046>048-054>057-064-065-200000-
CENTRAL INDIANA

CITY           SKY/WX    TMP DP  RH WIND       PRES   REMARKS
COLUMBUS       CLEAR     66  46  48 CALM      30.20R
GREENWOOD *+   CLEAR     73  53  48 W3        30.20R
INDIANAPOLIS   PTCLDY    67  51  56 SW8       30.19R
-EAGLE CREEK   CLEAR     71  50  47 SW3       30.18R
KOKOMO +       CLEAR     67  52  58 W6        30.19S
MT COMFORT *+  CLEAR     66  55  68 SW3       30.20R
SHELBYVILLE    CLEAR     69  49  48 SW5       30.18S

$$

INZ033-034-041-042-049-050-058-059-200000-
EAST CENTRAL INDIANA

CITY           SKY/WX    TMP DP  RH WIND       PRES   REMARKS
MUNCIE         CLOUDY    69  50  50 SW3       30.18R
RICHMOND +     CLEAR     64  50  59 SW6       30.20S HAZE

$$

INZ060-061-067>069-081>083-085>088-200000-
SOUTHWEST INDIANA

CITY           SKY/WX    TMP DP  RH WIND       PRES   REMARKS
EVANSVILLE     CLEAR     70  51  51 CALM      30.19S
HUNTINGBURG +  CLEAR     69  52  54 S3        30.20S

$$

INZ062-063-066-070>080-084-089>092-200000-
SOUTH CENTRAL AND SOUTHEAST INDIANA

CITY           SKY/WX    TMP DP  RH WIND       PRES   REMARKS
BLOOMINGTON    CLEAR     65  52  62 CALM      30.20R
MADISON *+     CLEAR     64  50  59 CALM      30.23S
SEYMOUR +      CLEAR     68  50  52 SW3       30.20R

$$





USA.gov is the U.S. government's official web portal to all federal, state and local government web resources and services.